North Uxbridge, Massachusetts
Current Conditions -  °F | °C
As of 2:15 PM on Friday 24 Oct 2014 (Local Time) from KSFZ Reporting Station
Overcast Overcast  
Wind Chill: 52°   Ceiling: 2000
Heat Index: 52°   Visibility: 10mi
Dew Point: 39°   Wind: 12mph
Humidity: 62%   Direction: 310°NW
Pressure: 29.69"   Gusts: NA
Location:  42.09°N, 71.64°W
Report Text: KSFZ 241815Z 31010KT 10SM OVC020 11/04 A2969 RMK AO1
Loading
Personal Weather Stations






























Interactive Weather Map
Tropical Storm Tracking
New forecast layout! Learn more

10-Day Weather Forecast

Advertisements
Track Severe Weather on mobile